Weather History for Renton, WA

Change the Weather History Date:

Sunday, January 12, 2014

  Actual Average Record
Temperature  
Mean Temperature 46 °F -  
Max Temperature 51 °F 45 °F - (-1)
Min Temperature 41 °F 36 °F - (-1)
Degree Days  
Heating Degree Days 19    
Moisture  
Dew Point 42 °F    
Average Humidity 84    
Maximum Humidity 96    
Minimum Humidity 71    
Precipitation  
Precipitation 0.03 in - - ()
Sea Level Pressure  
Sea Level Pressure 30.10 in    
Wind  
Wind Speed 9 mph (SSE)    
Max Wind Speed 16 mph    
Max Gust Speed 26 mph    
Visibility 10 miles    
Events Rain    
Averages and records for this station are not official NWS values.
T = Trace of Precipitation, MM = Missing Value Source: NWS Daily Summary

Daily Weather History Graph

Daily Weather History Graph

Search for Another Location

Airport:

Trip Planner

Search our weather history database for the weather conditions in past years. The results will help you decide how hot, cold, wet, or windy it might be!

Date:

Astronomy

Jan. 12, 2014 Rise Set
Actual Time 7:53 AM PST 4:41 PM PST
Civil Twilight 7:18 AM PST 5:16 PM PST
Nautical Twilight 6:40 AM PST 5:54 PM PST
Astronomical Twilight 6:03 AM PST 6:31 PM PST
Moon 2:14 PM PST (1/12) 4:55 AM PST (1/12)
Length of Visible Light 9h 57m
Length of Day
8h 47m
Waxing Gibbous, 90% of the Moon is Illuminated
Jan 12
Waxing Gibbous
Jan 15
Full
Jan 23
Last Quarter
Jan 30
New
Feb 6
First Quarter

Hourly Weather History & Observations

Time (PST) Temp. Windchill Dew Point Humidity Pressure Visibility Wind Dir Wind Speed Gust Speed Precip Events Conditions
12:53 AM 45.0 °F 41.8 °F 37.0 °F 74% 29.86 in 10.0 mi SSE 5.8 mph - N/A   Clear
1:53 AM 45.0 °F 41.8 °F 36.0 °F 71% 29.91 in 10.0 mi Variable 5.8 mph - N/A   Clear
2:53 AM 45.0 °F 42.6 °F 36.0 °F 71% 29.96 in 10.0 mi Variable 4.6 mph - N/A   Overcast
3:53 AM 45.0 °F 41.2 °F 37.0 °F 74% 29.99 in 10.0 mi SSE 6.9 mph - N/A   Overcast
4:53 AM 46.0 °F 42.5 °F 37.9 °F 73% 30.03 in 10.0 mi Variable 6.9 mph - N/A   Overcast
5:53 AM 45.0 °F 40.6 °F 39.0 °F 80% 30.04 in 10.0 mi South 8.1 mph - N/A   Overcast
6:53 AM 44.1 °F 38.1 °F 39.9 °F 85% 30.05 in 8.0 mi South 11.5 mph 20.7 mph 0.00 in Rain Light Rain
7:15 AM 42.8 °F 37.0 °F 39.2 °F 87% 30.05 in 8.0 mi SSE 10.4 mph - 0.00 in Rain Light Rain
7:53 AM 42.1 °F 36.6 °F 39.9 °F 92% 30.07 in 6.0 mi SSE 9.2 mph 16.1 mph 0.01 in Rain Light Rain
8:53 AM 41.0 °F 36.4 °F 39.0 °F 93% 30.07 in 10.0 mi SE 6.9 mph - 0.02 in Rain Light Rain
9:49 AM 41.0 °F 38.0 °F 39.2 °F 93% 30.07 in 10.0 mi ESE 4.6 mph - 0.00 in   Overcast
9:53 AM 41.0 °F 38.0 °F 39.9 °F 96% 30.09 in 10.0 mi ESE 4.6 mph - 0.00 in   Overcast
10:53 AM 44.1 °F 37.7 °F 39.9 °F 85% 30.09 in 10.0 mi SSE 12.7 mph - N/A   Overcast
11:44 AM 46.4 °F 40.7 °F 42.8 °F 87% 30.07 in 10.0 mi SSE 12.7 mph 18.4 mph N/A   Overcast
11:53 AM 46.9 °F - 43.0 °F 86% 30.09 in 10.0 mi SSE 9.2 mph 18.4 mph N/A   Overcast
12:53 PM 48.0 °F - 45.0 °F 89% 30.09 in 10.0 mi SSE 8.1 mph 17.3 mph N/A   Overcast
1:53 PM 50.0 °F - 46.0 °F 86% 30.08 in 10.0 mi SSE 12.7 mph 23.0 mph N/A   Overcast
2:53 PM 50.0 °F - 46.9 °F 89% 30.11 in 10.0 mi SSE 13.8 mph 20.7 mph N/A   Overcast
3:53 PM 50.0 °F - 46.9 °F 89% 30.12 in 10.0 mi SSE 15.0 mph 21.9 mph N/A   Overcast
4:53 PM 51.1 °F - 46.9 °F 86% 30.15 in 10.0 mi South 16.1 mph 26.5 mph N/A   Overcast
5:53 PM 51.1 °F - 46.9 °F 86% 30.19 in 10.0 mi South 11.5 mph 19.6 mph N/A   Overcast
6:53 PM 51.1 °F - 45.0 °F 80% 30.21 in 10.0 mi South 11.5 mph 23.0 mph N/A   Overcast
7:53 PM 51.1 °F - 45.0 °F 80% 30.22 in 10.0 mi South 16.1 mph 23.0 mph N/A   Overcast
8:53 PM 50.0 °F - 45.0 °F 83% 30.26 in 10.0 mi SSE 12.7 mph 21.9 mph N/A   Overcast
9:53 PM 50.0 °F - 45.0 °F 83% 30.27 in 10.0 mi South 16.1 mph 26.5 mph N/A   Overcast
10:53 PM 51.1 °F - 46.0 °F 83% 30.31 in 10.0 mi SSE 15.0 mph 21.9 mph N/A   Overcast
11:53 PM 50.0 °F - 46.0 °F 86% 30.32 in 10.0 mi SSE 12.7 mph 20.7 mph N/A   Overcast